User: anonymous   Login
Location: Unspecified
(0.0000°N, 0.0000°E)
Time: 01:09:33
(UTC+00:00)
Language:

STARLINK-3162 - Orbit

View from above orbital plane
View from above orbital plane
View from above satellite
View from above satellite

Ground track
Ground track

The orbit is defined by the following mean orbital elements,

1 49411U          26145.61758042 +.00000000 +00000-0 -69201-4 0 00006
2 49411  53.2141 233.7772 0001060  71.4718 288.6389 15.08825245    07
Epoch (UTC): 25 May 2026 14:49:18
Eccentricity: 0.0001060
inclination: 53.2141°
perigee height: 539 km
apogee height: 541 km
right ascension of ascending node: 233.7772°
argument of perigee: 71.4718°
revolutions per day: 15.08825245
mean anomaly at epoch: 288.6389°

The dashed part of the orbit path shows where the satellite is in the earth's shadow,  

DLR